Ankeny, IA

3:41 PM CST on November 17, 2017 (GMT -0600)
Ankeny Regional

Weather History for KIKV - February, 2013

Change the Weather History Date:

Thursday, February 21, 2013

  Actual Average (KDSM) Record (KDSM)
Temperature  
Mean Temperature 22 °F -  
Max Temperature 26 °F 40 °F 68 °F (2017)
Min Temperature 17 °F 21 °F -9 °F (1885)
Degree Days  
Heating Degree Days 44    
Moisture  
Dew Point 15 °F    
Average Humidity 72    
Maximum Humidity 86    
Minimum Humidity 51    
Precipitation  
Precipitation 0.00 in - - ()
Sea Level Pressure  
Sea Level Pressure 30.10 in    
Wind  
Wind Speed 10 mph (ENE)    
Max Wind Speed 22 mph    
Max Gust Speed 30 mph    
Visibility 7 miles    
Events Snow    
Averages and records for this station are not official NWS values.
T = Trace of Precipitation, MM = Missing Value Source: NWS Daily Summary

Daily Weather History Graph

Daily Weather History Graph

Search for Another Location

Airport or City:

Trip Planner

Search our weather history database for the weather conditions in past years. The results will help you decide how hot, cold, wet, or windy it might be!

Date:

Astronomy

Feb. 21, 2013 Rise Set
Actual Time 7:00 AM CST 5:55 PM CST
Civil Twilight 6:32 AM CST 6:23 PM CST
Nautical Twilight 6:00 AM CST 6:55 PM CST
Astronomical Twilight 5:28 AM CST 7:28 PM CST
Moon 2:08 PM CST (2/21) 4:08 AM CST (2/21)
Length of Visible Light 11h 50m
Length of Day
10h 54m
Waxing Gibbous, 84% of the Moon is Illuminated
Feb 21
Waxing Gibbous
Feb 25
Full
Mar 4
Last Quarter
Mar 11
New
Mar 19
First Quarter

Hourly Weather History & Observations

Time (CST) Temp. Windchill Dew Point Humidity Pressure Visibility Wind Dir Wind Speed Gust Speed Precip Events Conditions
12:15 AM 19.4 °F 12.8 °F 10.4 °F 68% 30.30 in 10.0 mi ENE 4.6 mph - N/A   Clear
12:35 AM 19.4 °F 12.8 °F 10.4 °F 68% 30.31 in 10.0 mi East 4.6 mph - N/A   Clear
12:55 AM 17.6 °F 10.7 °F 10.4 °F 73% 30.30 in 10.0 mi ENE 4.6 mph - N/A   Clear
1:15 AM 17.6 °F 10.7 °F 10.4 °F 73% 30.31 in 10.0 mi ENE 4.6 mph - N/A   Clear
1:35 AM 17.6 °F 12.3 °F 10.4 °F 73% 30.32 in 10.0 mi ENE 3.5 mph - N/A   Clear
1:55 AM 17.6 °F 10.7 °F 10.4 °F 73% 30.31 in 10.0 mi ENE 4.6 mph - N/A   Mostly Cloudy
2:15 AM 17.6 °F 10.7 °F 10.4 °F 73% 30.31 in 10.0 mi ENE 4.6 mph - N/A   Mostly Cloudy
2:35 AM 17.6 °F 9.3 °F 12.2 °F 79% 30.30 in 10.0 mi ENE 5.8 mph - N/A   Clear
2:55 AM 17.6 °F 8.2 °F 12.2 °F 79% 30.29 in 10.0 mi East 6.9 mph - N/A   Clear
3:15 AM 19.4 °F 10.4 °F 12.2 °F 74% 30.28 in 10.0 mi ENE 6.9 mph - N/A   Clear
3:35 AM 17.6 °F 7.3 °F 12.2 °F 79% 30.24 in 10.0 mi ENE 8.1 mph - N/A   Clear
3:55 AM 17.6 °F 7.3 °F 12.2 °F 79% 30.23 in 10.0 mi East 8.1 mph - N/A   Clear
4:15 AM 17.6 °F 8.2 °F 12.2 °F 79% 30.24 in 10.0 mi East 6.9 mph - N/A   Clear
4:35 AM 17.6 °F 9.3 °F 12.2 °F 79% 30.26 in 10.0 mi ENE 5.8 mph - N/A   Clear
4:55 AM 17.6 °F 8.2 °F 12.2 °F 79% 30.25 in 10.0 mi East 6.9 mph - N/A   Clear
5:15 AM 17.6 °F 5.7 °F 12.2 °F 79% 30.25 in 10.0 mi ENE 10.4 mph - N/A   Clear
5:55 AM 17.6 °F 6.4 °F 12.2 °F 79% 30.21 in 10.0 mi ENE 9.2 mph - N/A   Clear
6:15 AM 19.4 °F 8.6 °F 10.4 °F 68% 30.23 in 10.0 mi East 9.2 mph - N/A   Clear
6:35 AM 19.4 °F 7.2 °F 10.4 °F 68% 30.24 in 10.0 mi East 11.5 mph 17.3 mph N/A   Clear
6:55 AM 19.4 °F 7.2 °F 10.4 °F 68% 30.22 in 10.0 mi East 11.5 mph 19.6 mph N/A   Clear
7:15 AM 19.4 °F 6.6 °F 10.4 °F 68% 30.24 in 10.0 mi East 12.7 mph 18.4 mph N/A   Clear
7:35 AM 19.4 °F 7.2 °F 10.4 °F 68% 30.23 in 10.0 mi East 11.5 mph 18.4 mph N/A   Clear
7:55 AM 19.4 °F 7.9 °F 10.4 °F 68% 30.23 in 10.0 mi East 10.4 mph 16.1 mph N/A   Clear
8:15 AM 19.4 °F 7.9 °F 8.6 °F 63% 30.22 in 10.0 mi East 10.4 mph - N/A   Clear
8:35 AM 19.4 °F 4.5 °F 8.6 °F 63% 30.22 in 10.0 mi East 17.3 mph 20.7 mph N/A   Scattered Clouds
8:55 AM 21.2 °F 7.8 °F 8.6 °F 58% 30.21 in 10.0 mi East 15.0 mph 24.2 mph N/A   Clear
9:15 AM 21.2 °F 7.8 °F 8.6 °F 58% 30.22 in 10.0 mi East 15.0 mph - N/A   Clear
9:35 AM 21.2 °F 6.4 °F 8.6 °F 58% 30.22 in 10.0 mi East 18.4 mph 24.2 mph N/A   Clear
9:55 AM 21.2 °F 7.8 °F 8.6 °F 58% 30.22 in 10.0 mi ESE 15.0 mph 23.0 mph N/A   Clear
10:15 AM 21.2 °F 7.8 °F 10.4 °F 63% 30.22 in 10.0 mi East 15.0 mph 21.9 mph N/A   Clear
10:35 AM 23.0 °F 12.4 °F 10.4 °F 59% 30.22 in 10.0 mi East 10.4 mph - N/A   Clear
10:55 AM 23.0 °F 12.4 °F 10.4 °F 59% 30.20 in 10.0 mi East 10.4 mph 20.7 mph N/A   Clear
11:15 AM 24.8 °F 12.9 °F 10.4 °F 54% 30.17 in 10.0 mi East 13.8 mph 18.4 mph N/A   Clear
11:35 AM 24.8 °F 12.9 °F 10.4 °F 54% 30.16 in 10.0 mi East 13.8 mph 19.6 mph N/A   Clear
12:15 PM 24.8 °F 10.7 °F 10.4 °F 54% 30.13 in 10.0 mi ENE 19.6 mph 25.3 mph N/A   Clear
12:35 PM 24.8 °F 11.5 °F 10.4 °F 54% 30.10 in 10.0 mi East 17.3 mph 26.5 mph N/A   Clear
12:55 PM 26.6 °F 14.7 °F 10.4 °F 51% 30.10 in 10.0 mi East 15.0 mph 23.0 mph N/A   Clear
1:15 PM 26.6 °F 14.3 °F 10.4 °F 51% 30.08 in 10.0 mi East 16.1 mph - N/A   Clear
1:35 PM 26.6 °F 14.7 °F 12.2 °F 55% 30.08 in 10.0 mi East 15.0 mph 24.2 mph N/A   Clear
1:55 PM 26.6 °F 12.7 °F 12.2 °F 55% 30.06 in 10.0 mi East 20.7 mph 25.3 mph N/A   Clear
2:15 PM 26.6 °F 12.7 °F 14.0 °F 59% 30.05 in 10.0 mi East 20.7 mph 29.9 mph N/A   Clear
2:35 PM 26.6 °F 12.7 °F 14.0 °F 59% 30.03 in 10.0 mi East 20.7 mph 28.8 mph N/A   Clear
2:55 PM 26.6 °F 13.4 °F 14.0 °F 59% 30.02 in 10.0 mi East 18.4 mph 28.8 mph N/A   Scattered Clouds
3:15 PM 26.6 °F 12.4 °F 15.8 °F 64% 30.00 in 7.0 mi East 21.9 mph 29.9 mph N/A Snow Light Snow
3:35 PM 26.6 °F 13.8 °F 17.6 °F 69% 29.99 in 1.8 mi East 17.3 mph 25.3 mph N/A Snow Light Snow
3:55 PM 26.6 °F 13.1 °F 17.6 °F 69% 29.99 in 2.0 mi East 19.6 mph 24.2 mph N/A Snow Light Snow
4:15 PM 24.8 °F 12.4 °F 19.4 °F 80% 29.99 in 1.0 mi East 15.0 mph 20.7 mph N/A Snow Light Snow
4:35 PM 24.8 °F 13.4 °F 21.2 °F 86% 29.98 in 1.2 mi ENE 12.7 mph 19.6 mph N/A Snow Light Snow
4:55 PM 24.8 °F 13.4 °F 21.2 °F 86% 29.97 in 1.2 mi ENE 12.7 mph 20.7 mph N/A Snow Light Snow
5:15 PM 26.6 °F 14.7 °F 21.2 °F 80% 29.96 in 1.5 mi ENE 15.0 mph 19.6 mph N/A Snow Light Snow
5:35 PM 26.6 °F 13.8 °F 21.2 °F 80% 29.95 in 1.8 mi ENE 17.3 mph 21.9 mph N/A Snow Light Snow
5:55 PM 26.6 °F 14.3 °F 21.2 °F 80% 29.94 in 1.2 mi ENE 16.1 mph 23.0 mph N/A Snow Light Snow
6:15 PM 24.8 °F 12.9 °F 21.2 °F 86% 29.94 in 1.0 mi ENE 13.8 mph 17.3 mph N/A Snow Light Snow
6:35 PM 24.8 °F 12.4 °F 21.2 °F 86% 29.92 in 1.8 mi ENE 15.0 mph 23.0 mph N/A Snow Light Snow
6:55 PM 24.8 °F 12.4 °F 21.2 °F 86% 29.91 in 2.5 mi ENE 15.0 mph 20.7 mph N/A Snow Light Snow
7:15 PM 24.8 °F 13.4 °F 21.2 °F 86% 29.91 in 3.0 mi ENE 12.7 mph - N/A Snow Light Snow
7:35 PM 24.8 °F 13.4 °F 21.2 °F 86% 29.91 in 3.0 mi ENE 12.7 mph 19.6 mph N/A Snow Light Snow
7:55 PM 24.8 °F 12.4 °F 21.2 °F 86% 29.90 in 2.5 mi ENE 15.0 mph 19.6 mph N/A Snow Light Snow
8:15 PM 24.8 °F 14.6 °F 21.2 °F 86% 29.91 in 2.5 mi ENE 10.4 mph 17.3 mph N/A Snow Light Snow
8:35 PM 24.8 °F 15.3 °F 21.2 °F 86% 29.91 in 1.5 mi NE 9.2 mph - N/A Snow Light Snow
9:15 PM 24.8 °F 15.3 °F 21.2 °F 86% 29.90 in 1.5 mi NE 9.2 mph - N/A Snow Light Snow
9:35 PM 24.8 °F 14.0 °F 19.4 °F 80% 29.89 in 2.0 mi NE 11.5 mph - N/A Snow Light Snow
9:55 PM 24.8 °F 14.6 °F 21.2 °F 86% 29.88 in 4.0 mi NE 10.4 mph - N/A Snow Light Snow
10:15 PM 24.8 °F 15.3 °F 21.2 °F 86% 29.87 in 1.2 mi NE 9.2 mph - N/A Snow Light Snow
10:35 PM 24.8 °F 14.0 °F 21.2 °F 86% 29.87 in 1.0 mi NE 11.5 mph - N/A Snow Snow
10:55 PM 24.8 °F 14.0 °F 21.2 °F 86% 29.85 in 3.0 mi NE 11.5 mph - N/A Snow Light Snow
11:15 PM 24.8 °F 14.0 °F 21.2 °F 86% 29.85 in 0.8 mi NE 11.5 mph - N/A Snow Snow
11:35 PM 24.8 °F 14.6 °F 21.2 °F 86% 29.84 in 2.0 mi NE 10.4 mph - N/A Snow Light Snow
11:55 PM 24.8 °F 15.3 °F 21.2 °F 86% 29.83 in 1.0 mi NE 9.2 mph - N/A Snow Snow